This is the latest recevied weather packets stored in our database for station/object WX9WTF. If no packets are shown the sender has not sent any weather packets the latest 1 day(s).
| Time | Temp. | Humidity | Pressure | Rain* | Wind** | Luminosity | Snow |
|---|---|---|---|---|---|---|---|
| 1778010753 | 7.22° C | 99% | 1012.4 hPa | 1.27 mm | 0 m/s | 83 W/m² | - |
| 1778010450 | 7.22° C | 98% | 1012.2 hPa | 1.27 mm | 0.89 m/s, 76° | 64 W/m² | - |
| 1778010146 | 7.22° C | 98% | 1012.4 hPa | 0.51 mm | 0 m/s | 63 W/m² | - |
| 1778009842 | 7.22° C | 98% | 1012.9 hPa | 0 mm | 0 m/s | 71 W/m² | - |
| 1778009539 | 7.22° C | 98% | 1012.6 hPa | 0 mm | 0 m/s | 89 W/m² | - |
| 1778009238 | 7.22° C | 98% | 1012.8 hPa | 0 mm | 0 m/s | 89 W/m² | - |
| 1778008935 | 7.22° C | 98% | 1012.6 hPa | 0 mm | 0.45 m/s, 32° | 59 W/m² | - |
| 1778008633 | 7.22° C | 98% | 1012.4 hPa | 0 mm | 0 m/s | 62 W/m² | - |
| 1778008331 | 6.67° C | 98% | 1012.7 hPa | 0 mm | 0.45 m/s, 100° | 64 W/m² | - |
| 1778008028 | 6.67° C | 98% | 1012.8 hPa | 1.78 mm | 0 m/s | 66 W/m² | - |
| 1778007727 | 6.67° C | 97% | 1012.9 hPa | 3.05 mm | 0.45 m/s, 104° | 50 W/m² | - |
| 1778007424 | 6.67° C | 97% | 1013 hPa | 1.78 mm | 0 m/s | 38 W/m² | - |
| 1778007120 | 6.67° C | 97% | 1012.8 hPa | 2.29 mm | 0 m/s | 50 W/m² | - |
| 1778006817 | 6.67° C | 97% | 1012.9 hPa | 3.05 mm | 0.45 m/s, 57° | 63 W/m² | - |
| 1778006514 | 6.67° C | 97% | 1012.9 hPa | 2.29 mm | 0 m/s | 59 W/m² | - |
| 1778006211 | 6.67° C | 97% | 1012.8 hPa | 0 mm | 0.89 m/s, 69° | 44 W/m² | - |
| 1778005908 | 6.67° C | 97% | 1013.2 hPa | 0 mm | 0.45 m/s, 59° | 45 W/m² | - |
| 1778005604 | 6.67° C | 96% | 1013.4 hPa | 2.29 mm | 0.89 m/s, 26° | 43 W/m² | - |
| 1778005302 | 6.67° C | 96% | 1013.4 hPa | 3.56 mm | 0.45 m/s, 14° | 49 W/m² | - |
| 1778004998 | 6.67° C | 96% | 1013.3 hPa | 1.27 mm | 0.45 m/s, 8° | 72 W/m² | - |
| 1778004696 | 6.67° C | 96% | 1012.9 hPa | 0.51 mm | 0.89 m/s, 50° | 62 W/m² | - |
| 1778004391 | 6.67° C | 96% | 1013.5 hPa | 0 mm | 2.24 m/s, 46° | 42 W/m² | - |
| 1778004089 | 6.67° C | 96% | 1013.5 hPa | 1.78 mm | 0.45 m/s, 72° | 40 W/m² | - |
| 1778003785 | 6.67° C | 96% | 1013.7 hPa | 3.56 mm | 0.89 m/s, 17° | 46 W/m² | - |
| 1778003481 | 6.67° C | 96% | 1013.4 hPa | 2.29 mm | 1.34 m/s, 46° | 62 W/m² | - |
* Rain latest hour (hover to see other rain measurements)
** Current wind speed in m/s (hover to see current wind gust speed)